When you browse on this site, cookies collect data to enhance your experience and personalize the content and advertising you see.
Visit our Privacy Policy to learn more. By continuing to use the site, you agree to this use of cookies and data.
  • In Romania
  • List of Countries
  • For 7 days
  • Water Temperature
  • Weather Map
  • Weather Widgets
  • user-avatar
    Login

    Hourly Weather Shkoder

    Today, 2 June, Tuesday

    Time Temperature Precipitation Wind Pressure Humidity
    00:00 +13°C° 0 mm 2 mps 738 mmHg 79%
    01:00 +12°C° 0 mm 2 mps 737 mmHg 78%
    02:00 +12°C° 0 mm 2 mps 737 mmHg 78%
    03:00 +12°C° 0 mm 2 mps 737 mmHg 78%
    04:00 +10°C° 0 mm 2 mps 737 mmHg 78%
    05:00 +13°C° 0 mm 2 mps 737 mmHg 74%
    06:00 +15°C° 0 mm 2 mps 737 mmHg 70%
    07:00 +18°C° 0 mm 1 mps 737 mmHg 66%
    08:00 +19°C° 0 mm 1 mps 736 mmHg 61%
    09:00 +20°C° 0 mm 1 mps 736 mmHg 56%
    10:00 +22°C° 0 mm 1 mps 736 mmHg 52%
    11:00 +21°C° 0.1 mm 2 mps 736 mmHg 53%
    12:00 +21°C° 0.1 mm 3 mps 736 mmHg 54%
    13:00 +22°C° 0.1 mm 3 mps 736 mmHg 55%
    14:00 +21°C° 0.4 mm 3 mps 735 mmHg 58%
    15:00 +21°C° 0.4 mm 3 mps 735 mmHg 61%
    16:00 +20°C° 0.4 mm 2 mps 735 mmHg 64%
    17:00 +19°C° 0.5 mm 2 mps 735 mmHg 70%
    18:00 +18°C° 0.5 mm 1 mps 735 mmHg 76%
    19:00 +16°C° 0.5 mm 1 mps 735 mmHg 81%
    20:00 +15°C° 0.1 mm 1 mps 735 mmHg 82%
    21:00 +14°C° 0.1 mm 1 mps 735 mmHg 83%
    22:00 +14°C° 0.1 mm 2 mps 735 mmHg 84%
    23:00 +13°C° 0 mm 2 mps 735 mmHg 83%

    Tomorrow, 3 June, Wednesday

    Time Temperature Precipitation Wind Pressure Humidity
    00:00 +13°C° 0 mm 2 mps 735 mmHg 82%
    01:00 +13°C° 0 mm 2 mps 735 mmHg 82%
    02:00 +12°C° 0 mm 2 mps 735 mmHg 81%
    03:00 +12°C° 0 mm 2 mps 735 mmHg 80%
    04:00 +12°C° 0 mm 2 mps 735 mmHg 79%
    05:00 +13°C° 0 mm 2 mps 735 mmHg 75%
    06:00 +15°C° 0 mm 2 mps 735 mmHg 71%
    07:00 +16°C° 0 mm 1 mps 735 mmHg 67%
    08:00 +19°C° 0 mm 1 mps 735 mmHg 62%
    09:00 +20°C° 0 mm 1 mps 735 mmHg 57%
    10:00 +21°C° 0 mm 1 mps 735 mmHg 52%
    11:00 +21°C° 0 mm 2 mps 735 mmHg 51%
    12:00 +21°C° 0 mm 2 mps 735 mmHg 50%
    13:00 +22°C° 0 mm 3 mps 734 mmHg 49%
    14:00 +21°C° 0 mm 3 mps 734 mmHg 52%
    15:00 +21°C° 0 mm 3 mps 734 mmHg 54%
    16:00 +21°C° 0 mm 3 mps 734 mmHg 57%
    17:00 +19°C° 0 mm 2 mps 734 mmHg 65%
    18:00 +19°C° 0 mm 1 mps 734 mmHg 73%
    19:00 +16°C° 0 mm 1 mps 734 mmHg 81%
    20:00 +15°C° 0 mm 1 mps 735 mmHg 81%
    21:00 +15°C° 0 mm 1 mps 735 mmHg 81%
    22:00 +14°C° 0 mm 1 mps 735 mmHg 81%
    23:00 +14°C° 0 mm 1 mps 735 mmHg 81%

    Day after tomorrow, 4 June, Thursday

    Time Temperature Precipitation Wind Pressure Humidity
    00:00 +14°C° 0 mm 1 mps 735 mmHg 80%
    01:00 +13°C° 0 mm 1 mps 735 mmHg 79%
    02:00 +13°C° 0 mm 1 mps 735 mmHg 79%
    03:00 +13°C° 0 mm 1 mps 735 mmHg 78%
    04:00 +13°C° 0 mm 1 mps 735 mmHg 77%
    05:00 +15°C° 0 mm 1 mps 735 mmHg 72%
    06:00 +18°C° 0 mm 1 mps 735 mmHg 66%
    07:00 +19°C° 0 mm 1 mps 735 mmHg 60%
    08:00 +20°C° 0 mm 2 mps 735 mmHg 58%
    09:00 +21°C° 0 mm 2 mps 735 mmHg 55%
    10:00 +23°C° 0 mm 2 mps 735 mmHg 53%
    11:00 +24°C° 0.1 mm 3 mps 735 mmHg 54%
    12:00 +23°C° 0.1 mm 4 mps 735 mmHg 56%
    13:00 +23°C° 0.1 mm 4 mps 735 mmHg 57%
    14:00 +23°C° 0 mm 4 mps 735 mmHg 60%
    15:00 +22°C° 0 mm 4 mps 735 mmHg 63%
    16:00 +22°C° 0 mm 5 mps 735 mmHg 66%
    17:00 +20°C° 0 mm 4 mps 735 mmHg 72%
    18:00 +19°C° 0 mm 3 mps 735 mmHg 79%
    19:00 +17°C° 0 mm 2 mps 735 mmHg 85%
    20:00 +17°C° 0 mm 2 mps 735 mmHg 83%
    21:00 +17°C° 0 mm 2 mps 736 mmHg 81%
    22:00 +16°C° 0 mm 2 mps 736 mmHg 80%
    23:00 +16°C° 0 mm 2 mps 736 mmHg 78%

    5 June, Friday

    Time Temperature Precipitation Wind Pressure Humidity
    00:00 +16°C° 0 mm 2 mps 736 mmHg 77%
    01:00 +15°C° 0 mm 2 mps 735 mmHg 75%
    02:00 +16°C° 0 mm 1 mps 735 mmHg 71%
    03:00 +16°C° 0 mm 1 mps 735 mmHg 67%
    04:00 +18°C° 0 mm 1 mps 735 mmHg 63%
    05:00 +19°C° 0 mm 1 mps 735 mmHg 64%
    06:00 +19°C° 0 mm 1 mps 735 mmHg 65%
    07:00 +20°C° 0 mm 1 mps 735 mmHg 66%
    08:00 +19°C° 0.7 mm 1 mps 735 mmHg 72%
    09:00 +17°C° 0.7 mm 2 mps 735 mmHg 77%
    10:00 +16°C° 0.7 mm 2 mps 734 mmHg 83%
    11:00 +16°C° 1.1 mm 2 mps 734 mmHg 84%
    12:00 +16°C° 1.1 mm 1 mps 734 mmHg 85%
    13:00 +16°C° 1.1 mm 1 mps 734 mmHg 86%
    14:00 +16°C° 1.8 mm 2 mps 733 mmHg 87%
    15:00 +15°C° 1.8 mm 2 mps 733 mmHg 88%
    16:00 +15°C° 1.8 mm 2 mps 733 mmHg 89%
    17:00 +15°C° 0.7 mm 2 mps 733 mmHg 89%
    18:00 +14°C° 0.7 mm 3 mps 732 mmHg 88%
    19:00 +14°C° 0.7 mm 3 mps 732 mmHg 88%
    20:00 +15°C° 0.3 mm 2 mps 732 mmHg 89%
    21:00 +15°C° 0.3 mm 2 mps 733 mmHg 89%
    22:00 +15°C° 0.3 mm 2 mps 733 mmHg 90%
    23:00 +15°C° 0.3 mm 2 mps 733 mmHg 89%

    6 June, Saturday

    Time Temperature Precipitation Wind Pressure Humidity
    00:00 +15°C° 0.3 mm 1 mps 733 mmHg 89%
    01:00 +16°C° 0.3 mm 1 mps 733 mmHg 89%
    02:00 +15°C° 0.1 mm 1 mps 733 mmHg 89%
    03:00 +15°C° 0.1 mm 1 mps 734 mmHg 90%
    04:00 +15°C° 0.1 mm 1 mps 734 mmHg 90%
    05:00 +16°C° 0.1 mm 1 mps 734 mmHg 88%
    06:00 +18°C° 0.1 mm 1 mps 735 mmHg 85%
    07:00 +19°C° 0.1 mm 1 mps 736 mmHg 83%
    08:00 +20°C° 0.1 mm 1 mps 736 mmHg 77%
    09:00 +22°C° 0.1 mm 1 mps 736 mmHg 71%
    10:00 +23°C° 0.1 mm 2 mps 737 mmHg 65%
    11:00 +23°C° 0 mm 2 mps 737 mmHg 64%
    12:00 +24°C° 0 mm 2 mps 737 mmHg 63%
    13:00 +24°C° 0 mm 2 mps 736 mmHg 61%
    14:00 +24°C° 0 mm 2 mps 736 mmHg 62%
    15:00 +24°C° 0 mm 2 mps 736 mmHg 63%
    16:00 +24°C° 0 mm 2 mps 736 mmHg 64%
    17:00 +22°C° 0 mm 1 mps 736 mmHg 70%
    18:00 +21°C° 0 mm 1 mps 736 mmHg 77%
    19:00 +17°C° 0 mm 0 mps 736 mmHg 83%
    20:00 +19°C° 0 mm 1 mps 737 mmHg 84%
    21:00 +18°C° 0 mm 1 mps 737 mmHg 84%
    22:00 +16°C° 0 mm 1 mps 738 mmHg 84%
    23:00 +16°C° 0 mm 1 mps 738 mmHg 82%

    7 June, Sunday

    Time Temperature Precipitation Wind Pressure Humidity
    00:00 +16°C° 0 mm 1 mps 738 mmHg 81%
    01:00 +16°C° 0 mm 1 mps 737 mmHg 79%
    02:00 +15°C° 0 mm 1 mps 737 mmHg 78%
    03:00 +15°C° 0 mm 1 mps 737 mmHg 77%
    04:00 +15°C° 0 mm 1 mps 737 mmHg 77%
    05:00 +18°C° 0 mm 1 mps 738 mmHg 73%
    06:00 +20°C° 0 mm 1 mps 738 mmHg 68%
    07:00 +20°C° 0 mm 0 mps 738 mmHg 64%
    08:00 +23°C° 0 mm 1 mps 738 mmHg 60%
    09:00 +24°C° 0 mm 1 mps 738 mmHg 56%
    10:00 +26°C° 0 mm 1 mps 738 mmHg 51%
    11:00 +26°C° 0 mm 1 mps 738 mmHg 50%
    12:00 +26°C° 0 mm 2 mps 738 mmHg 49%
    13:00 +27°C° 0 mm 2 mps 737 mmHg 48%
    14:00 +26°C° 0 mm 2 mps 737 mmHg 50%
    15:00 +26°C° 0 mm 2 mps 737 mmHg 52%
    16:00 +26°C° 0 mm 2 mps 737 mmHg 54%
    17:00 +24°C° 0 mm 1 mps 737 mmHg 61%
    18:00 +22°C° 0 mm 1 mps 737 mmHg 69%
    19:00 +20°C° 0 mm 1 mps 737 mmHg 76%
    20:00 +20°C° 0 mm 1 mps 737 mmHg 74%
    21:00 +19°C° 0 mm 1 mps 738 mmHg 73%
    22:00 +19°C° 0 mm 1 mps 738 mmHg 71%
    23:00 +19°C° 0 mm 1 mps 738 mmHg 69%
    Show more